Alturas, CA

4:30 PM PDT on July 20, 2017 (GMT -0700)
Alturas Municipal

Weather History for KAAT - October, 2013

Change the Weather History Date:

Monday, October 14, 2013

  Actual Average Record
Temperature  
Mean Temperature 39 °F 48 °F  
Max Temperature 60 °F 66 °F 88 °F (2015)
Min Temperature 18 °F 29 °F 13 °F (1960)
Degree Days  
Heating Degree Days 26 18  
Month to date heating degree days 301 217  
Since 1 July heating degree days 596 594  
Cooling Degree Days 0 0  
Month to date cooling degree days 0 0  
Year to date cooling degree days 280 156  
Moisture  
Dew Point 23 °F    
Average Humidity 61    
Maximum Humidity 96    
Minimum Humidity 25    
Precipitation  
Precipitation 0.00 in 0.04 in 0.94 in (1962)
Month to date precipitation 0.15 0.32  
Year to date precipitation 5.81 9.98  
Sea Level Pressure  
Sea Level Pressure 30.29 in    
Wind  
Wind Speed 3 mph (NE)    
Max Wind Speed 12 mph    
Max Gust Speed 16 mph    
Visibility 8 miles    
Events Fog    
T = Trace of Precipitation, MM = Missing Value Source: NWS Daily Summary

Daily Weather History Graph

Daily Weather History Graph

Search for Another Location

Airport or City:

Trip Planner

Search our weather history database for the weather conditions in past years. The results will help you decide how hot, cold, wet, or windy it might be!

Date:

Astronomy

Oct. 14, 2013 Rise Set
Actual Time 7:13 AM PDT 6:22 PM PDT
Civil Twilight 6:45 AM PDT 6:50 PM PDT
Nautical Twilight 6:13 AM PDT 7:22 PM PDT
Astronomical Twilight 5:41 AM PDT 7:54 PM PDT
Moon 3:57 PM PDT (10/14) 2:32 AM PDT (10/14)
Length of Visible Light 12h 04m
Length of Day
11h 08m
Waxing Gibbous, 80% of the Moon is Illuminated
Oct 14
Waxing Gibbous
Oct 18
Full
Oct 26
Last Quarter
Nov 3
New
Nov 9
First Quarter

Hourly Weather History & Observations

Time (PDT) Temp. Windchill Dew Point Humidity Pressure Visibility Wind Dir Wind Speed Gust Speed Precip Events Conditions
12:55 AM 30.0 °F - 27.0 °F 88% 30.27 in 9.0 mi Calm Calm - N/A   Clear
1:55 AM 27.0 °F - 24.1 °F 89% 30.27 in 10.0 mi Calm Calm - N/A   Clear
2:55 AM 25.0 °F 20.7 °F 23.0 °F 92% 30.28 in 10.0 mi South 3.5 mph - N/A   Clear
3:55 AM 21.9 °F - 19.0 °F 89% 30.28 in 10.0 mi Calm Calm - N/A   Clear
4:55 AM 21.0 °F - 18.0 °F 88% 30.30 in 10.0 mi Calm Calm - N/A   Clear
5:55 AM 23.0 °F - 21.0 °F 92% 30.31 in 6.0 mi Calm Calm - N/A   Clear
6:55 AM 19.9 °F - 17.1 °F 89% 30.34 in 8.0 mi Calm Calm - N/A   Clear
7:12 AM 21.2 °F - 17.6 °F 86% 30.30 in 1.5 mi Calm Calm - N/A   Scattered Clouds
7:19 AM 21.2 °F 16.4 °F 17.6 °F 86% 30.30 in 0.2 mi SSE 3.5 mph - N/A Fog Light Freezing Fog
7:46 AM 21.2 °F - 21.2 °F 100% 30.31 in 2.5 mi Calm Calm - N/A   Mostly Cloudy
7:49 AM 23.0 °F - 21.2 °F 93% 30.31 in 3.0 mi Calm Calm - N/A   Scattered Clouds
7:55 AM 24.1 °F - 21.0 °F 88% 30.36 in 4.0 mi Calm Calm - N/A   Scattered Clouds
8:11 AM 24.8 °F - 21.2 °F 86% 30.31 in 2.5 mi Calm Calm - N/A   Clear
8:20 AM 24.8 °F - 21.2 °F 86% 30.32 in 5.0 mi Calm Calm - N/A   Clear
8:55 AM 30.0 °F - 27.0 °F 88% 30.36 in 10.0 mi Calm Calm - N/A   Clear
9:55 AM 36.0 °F - 28.9 °F 76% 30.35 in 10.0 mi Calm Calm - N/A   Clear
10:55 AM 42.1 °F - 28.9 °F 60% 30.33 in 10.0 mi Calm Calm - N/A   Clear
11:55 AM 48.0 °F - 28.0 °F 46% 30.31 in 10.0 mi Calm Calm - N/A   Clear
12:55 PM 51.1 °F - 28.0 °F 41% 30.29 in 10.0 mi Calm Calm - N/A   Clear
1:55 PM 54.0 °F - 27.0 °F 35% 30.26 in 10.0 mi Calm Calm - N/A   Clear
2:55 PM 57.9 °F - 26.1 °F 30% 30.24 in 10.0 mi Variable 4.6 mph - N/A   Clear
3:55 PM 60.1 °F - 24.1 °F 25% 30.24 in 10.0 mi NNW 8.1 mph - N/A   Clear
4:55 PM 59.0 °F - 24.1 °F 26% 30.23 in 10.0 mi North 8.1 mph - N/A   Clear
5:55 PM 55.9 °F - 21.9 °F 27% 30.24 in 10.0 mi NE 9.2 mph 16.1 mph N/A   Clear
6:55 PM 50.0 °F - 21.9 °F 33% 30.28 in 10.0 mi NE 6.9 mph - N/A   Clear
7:55 PM 46.0 °F 43.9 °F 26.1 °F 46% 30.29 in 10.0 mi NNE 4.6 mph - N/A   Clear
8:55 PM 42.1 °F 37.7 °F 26.1 °F 53% 30.28 in 10.0 mi NE 6.9 mph - N/A   Clear
9:55 PM 42.1 °F 39.2 °F 26.1 °F 53% 30.28 in 10.0 mi ENE 4.6 mph - N/A   Clear
10:55 PM 39.9 °F 37.8 °F 25.0 °F 55% 30.27 in 10.0 mi NNE 3.5 mph - N/A   Clear
11:55 PM 34.0 °F 31.0 °F 24.1 °F 67% 30.28 in 9.0 mi SE 3.5 mph - N/A   Clear